Regional Weather Roundup
Issued by NWS

Home | Current Version | Previous Version | Text Only | Print | Product List | Glossary Off
Versions: 1 2 3 4 5 6 7 8 9 10 11 12 13 14 15 16 17 18 19 20 21 22 23 24 25 26 27 28 29 30 31 32 33 34 35 36 37 38 39 40 41 42 43 44 45 46 47 48 49 50

000
ASUS45 KSLC 241710
RWRUT

UTAH REGIONAL WEATHER ROUNDUP
NATIONAL WEATHER SERVICE SALT LAKE CITY UT
1100 AM MDT THU JUL 24 2014

UTZ001>011-023>025-241800-

NORTHERN UTAH

CITY           SKY/WX    TMP DP  RH WIND       PRES   REMARKS
HILL AFB       SUNNY     82  50  32 SW5       30.10R
LOGAN          NOT AVBL
OGDEN          SUNNY     83  47  28 W6        30.07R
PROVO AIRPORT  PTSUNNY   90  46  22 MISG      30.09F
SALT LAKE CITY PTSUNNY   87  45  23 NW9       30.04F
VERNAL         PTSUNNY   77  54  44 CALM      30.21S
WENDOVER       SUNNY     84  30  14 NW9       30.08S
HEBER CITY     MOSUNNY   84  41  21 S13G20    30.16S
WEST JORDAN    SUNNY     90  54  29 SE18      30.07S

$$

UTZ012>022-026-027-241800-

SOUTHERN UTAH

CITY           SKY/WX    TMP DP  RH WIND       PRES   REMARKS
BRYCE CANYON   MOSUNNY   76  47  35 S14G24    30.40F
CEDAR CITY     MOSUNNY   85  29  13 S15       30.19S
MILFORD        MOSUNNY   93  31  11 S21G29    30.12S
MOAB/CYNLANDS  SUNNY     90  50  25 S14       30.13F
PRICE          PTSUNNY   81  50  33 MISG      30.26F
ST GEORGE      MOSUNNY   95  41  15 SE10      30.00F HX  91
KANAB          PTSUNNY   84  48  28 S8        30.23S

$$

REGIONAL REPORTS     COLORADO/ARIZONA

CITY           SKY/WX    TMP DP  RH WIND       PRES   REMARKS
CRAIG, CO      CLOUDY    73  49  42 SW16      30.28S
GRAND JUNCTION PTSUNNY   84  49  29 SE16      30.20S
RIFLE          PTSUNNY   80  51  36 W3        30.25F
MONTROSE       MOSUNNY   82  53  36 N6        30.29F
CORTEZ         MOSUNNY   83  49  30 SW9       30.31S
PAGE, AZ       CLOUDY    90  53  28 VRB3      30.14F
GRAND CANYON   PTSUNNY   79  51  37 S10G20    30.36S
KINGMAN        MOSUNNY   96  47  18 S7        30.05S HX  92
FLAGSTAFF      CLOUDY    73  50  44 SW7       30.40S

$$

REGIONAL REPORTS    NEVADA/IDAHO/WYOMING

CITY           SKY/WX    TMP DP  RH WIND       PRES   REMARKS
LAS VEGAS, NV  MOSUNNY  101  29   8 S13       29.87F HX  94
ELY            SUNNY     83  24  11 E6        30.20F
ELKO           SUNNY     79  28  15 W10G17    30.18S
POCATELLO, ID  SUNNY     73  45  36 SW25      30.14S
BURLEY         SUNNY     68  42  38 W18G28    30.18R
EVANSTON, WY   MOSUNNY   80  40  23 SW26G38   30.25R
ROCK SPRINGS   PTSUNNY   82  43  25 SW22G30   30.23F

$$



USA.gov is the U.S. government's official web portal to all federal, state and local government web resources and services.